TimeCDT,TemperatureF,Dew PointF,Humidity,Sea Level PressureIn,VisibilityMPH,Wind Direction,Wind SpeedMPH,Gust SpeedMPH,PrecipitationIn,Events,Conditions,WindDirDegrees,DateUTC
12:18 AM,37.4,35.6,93,29.76,10.0,WNW,3.5,-,N/A,,Scattered Clouds,300,2013-10-31 05:18:00
12:52 AM,36.0,35.1,97,29.77,10.0,Calm,Calm,-,N/A,,Clear,0,2013-10-31 05:52:00
1:52 AM,34.0,33.1,96,29.75,10.0,WNW,3.5,-,N/A,,Clear,290,2013-10-31 06:52:00
2:52 AM,34.0,33.1,96,29.71,9.0,Calm,Calm,-,N/A,,Clear,0,2013-10-31 07:52:00
3:52 AM,32.0,30.9,96,29.73,7.0,SSW,4.6,-,N/A,,Clear,200,2013-10-31 08:52:00
4:52 AM,33.1,32.0,96,29.71,10.0,Calm,Calm,-,N/A,,Clear,0,2013-10-31 09:52:00
5:52 AM,32.0,30.9,96,29.69,8.0,Calm,Calm,-,N/A,,Clear,0,2013-10-31 10:52:00
6:52 AM,32.0,32.0,100,29.70,8.0,Calm,Calm,-,N/A,,Clear,0,2013-10-31 11:52:00
7:52 AM,32.0,30.9,96,29.68,10.0,Calm,Calm,-,N/A,,Clear,0,2013-10-31 12:52:00
8:52 AM,33.1,32.0,96,29.69,6.0,Calm,Calm,-,N/A,,Clear,0,2013-10-31 13:52:00
9:52 AM,34.0,33.1,96,29.67,8.0,Calm,Calm,-,N/A,,Clear,0,2013-10-31 14:52:00
10:00 AM,35.6,33.8,93,29.64,1.8,WSW,3.5,-,N/A,,Clear,250,2013-10-31 15:00:00
10:03 AM,35.6,33.8,93,29.63,0.8,WSW,4.6,-,N/A,,Overcast,240,2013-10-31 15:03:00
10:10 AM,35.6,33.8,93,29.63,0.2,WSW,3.5,-,N/A,Fog,Fog,240,2013-10-31 15:10:00
10:43 AM,35.6,35.6,100,29.62,0.2,WSW,3.5,-,N/A,Fog,Fog,240,2013-10-31 15:43:00
10:52 AM,36.0,36.0,100,29.64,0.2,Calm,Calm,-,N/A,Fog,Fog,0,2013-10-31 15:52:00
11:02 AM,37.4,35.6,93,29.61,0.2,Calm,Calm,-,N/A,Fog,Fog,0,2013-10-31 16:02:00
11:52 AM,43.0,41.0,93,29.62,9.0,West,4.6,-,N/A,,Mostly Cloudy,260,2013-10-31 16:52:00
12:02 PM,42.8,39.2,87,29.59,10.0,WSW,3.5,-,N/A,,Mostly Cloudy,240,2013-10-31 17:02:00
12:17 PM,44.6,41.0,87,29.58,10.0,WSW,6.9,-,N/A,,Clear,250,2013-10-31 17:17:00
12:52 PM,50.0,42.1,74,29.57,10.0,West,11.5,-,N/A,,Clear,280,2013-10-31 17:52:00
1:52 PM,54.0,41.0,62,29.53,10.0,WNW,12.7,-,N/A,,Clear,290,2013-10-31 18:52:00
2:52 PM,55.9,39.0,53,29.50,10.0,WNW,17.3,25.3,N/A,,Mostly Cloudy,300,2013-10-31 19:52:00
3:52 PM,55.0,39.0,55,29.50,10.0,NW,13.8,21.9,N/A,,Scattered Clouds,310,2013-10-31 20:52:00
4:52 PM,52.0,36.0,54,29.50,10.0,NW,19.6,24.2,N/A,,Scattered Clouds,310,2013-10-31 21:52:00
5:52 PM,51.1,37.0,59,29.52,10.0,NW,10.4,-,N/A,,Mostly Cloudy,320,2013-10-31 22:52:00
6:52 PM,46.9,37.0,68,29.54,10.0,WNW,5.8,-,N/A,,Mostly Cloudy,300,2013-10-31 23:52:00
7:52 PM,45.0,37.0,74,29.55,10.0,WNW,5.8,-,N/A,,Clear,290,2013-11-01 00:52:00
8:52 PM,42.1,36.0,79,29.55,10.0,West,6.9,-,N/A,,Clear,270,2013-11-01 01:52:00
9:52 PM,42.1,36.0,79,29.56,10.0,West,9.2,-,N/A,,Clear,280,2013-11-01 02:52:00
10:52 PM,41.0,36.0,82,29.57,-9999.0,North,-9999.0,-,N/A,,Unknown,0,2013-11-01 03:52:00
11:52 PM,-9999,-9999,N/A,29.56,-9999.0,North,-9999.0,-,N/A,,Unknown,0,2013-11-01 04:52:00